Lid_Strength_Index
4 4 4 4 4 3 2 2 2 2 2 2 3 3 3 3 3 0 1 0 2 5 4 4 4 5 5 5 8 6 7 7 8 13 13 12 13 11 11 10 11 12 13 14 13 16 17 8 8 12 8 6 7 7
4 4 4 4 4 4 3 3 2 2 2 3 3 3 3 3 3 2 2 1 1 3 4 1 2 2 2 2 4 5 6 6 6 9 10 11 12 12 12 14 8 12 9 11 11 11 6 6 7 5 6 7 6 7
5 4 4 5 4 4 4 3 3 3 3 3 3 3 3 3 3 1 0 0 0 4 4 4 4 2 0 1 0 6 4 4 5 4 7 9 13 9 14 12 11 8 6 9 10 7 6 6 5 5 6 7 7 7
5 5 5 5 5 5 5 4 3 3 3 3 3 3 3 3 3 2 0 1 1 4 11 6 3 3 1 0 1 1 3 3 3 3 10 11 12 6 11 9 9 7 7 8 9 7 6 6 6 6 6 7 7 7
5 5 5 5 5 5 5 4 4 3 3 4 3 3 3 3 3 0 -1 -0 -0 3 9 6 3 3 2 1 2 1 2 3 5 8 11 11 7 8 8 9 10 6 8 10 12 7 7 7 7 6 7 7 7 8
5 5 5 5 5 5 5 5 4 4 3 3 3 3 3 3 3 -0 3 0 0 -0 6 11 3 5 3 2 2 3 3 3 4 7 9 6 5 7 12 12 8 6 5 5 7 7 7 7 7 6 7 8 8 8
5 5 5 5 5 5 5 5 5 5 4 3 3 3 3 3 -1 2 4 2 3 0 7 10 8 6 6 4 4 3 3 3 5 6 8 7 7 6 12 12 7 6 6 6 6 7 8 7 8 8 8 8 7 7
4 5 5 5 5 5 5 5 5 5 5 4 3 3 3 3 3 2 1 3 1 3 5 10 10 8 6 7 8 6 7 5 5 7 8 8 7 8 12 7 8 8 8 8 7 6 7 7 8 8 7 7 8 8
3 4 5 5 5 5 5 5 5 5 5 4 4 4 3 4 5 4 4 3 1 2 8 11 11 12 6 9 8 7 6 10 7 11 10 9 11 12 9 8 10 9 8 9 8 8 8 9 9 8 8 8 8 8
2 2 4 5 5 5 5 5 5 5 5 4 4 6 11 8 5 4 5 6 7 8 8 10 6 10 6 9 10 9 10 11 12 12 10 13 12 10 10 9 9 8 8 8 9 10 9 10 9 9 9 8 7 7
2 2 2 3 4 5 5 5 5 5 5 7 10 11 7 5 6 8 11 11 11 12 11 11 11 11 8 10 11 11 13 12 13 12 12 12 12 10 9 8 8 7 7 8 8 9 9 9 9 8 8 7 7 7
1 1 2 2 2 4 4 4 5 6 7 7 7 6 7 8 11 12 13 13 13 13 12 12 12 10 11 9 11 13 12 13 14 11 13 14 10 9 9 9 8 8 8 9 9 9 8 8 7 7 7 7 7 7
2 1 2 2 2 2 3 4 5 5 6 6 9 12 11 13 13 13 14 13 13 12 12 12 13 11 11 11 13 12 13 14 11 15 14 11 10 9 9 8 8 8 9 9 9 8 7 7 7 7 7 7 7 6
2 2 1 1 2 2 2 4 5 6 7 10 12 14 13 13 12 12 11 11 12 11 11 11 13 11 12 13 12 14 14 13 15 16 15 11 10 10 10 9 9 9 9 10 9 8 7 7 7 7 7 7 7 7
2 1 1 1 2 2 2 4 5 5 8 12 11 14 13 13 12 12 11 11 11 10 11 12 12 11 13 14 13 14 16 16 15 14 11 10 10 10 9 9 9 9 9 9 8 7 7 7 7 7 6 5 5 6
1 1 1 1 2 2 3 3 5 7 10 11 12 13 13 13 13 12 12 12 11 12 11 11 13 13 14 13 15 15 15 15 13 11 9 9 10 9 9 8 9 8 8 8 7 7 7 7 7 6 5 6 6 6
1 2 1 1 2 3 3 5 5 9 11 12 13 12 12 11 11 11 10 11 10 11 12 12 14 14 14 15 15 14 14 12 10 10 9 9 9 8 8 8 8 7 7 7 7 6 6 5 6 6 6 4 4 4
2 1 0 1 1 3 5 5 7 8 11 11 11 11 11 11 11 11 10 10 10 11 11 12 13 15 14 15 13 12 11 10 10 9 8 8 8 7 7 6 6 6 6 6 5 5 6 6 6 4 4 4 5 4
1 1 1 1 1 3 6 7 7 10 11 10 11 10 10 10 11 11 10 9 8 8 10 11 13 13 12 12 10 10 9 9 9 8 8 7 7 7 7 6 7 6 6 5 5 4 4 4 4 4 4 4 5 4
1 2 3 3 2 4 7 8 6 8 10 9 9 9 9 10 10 10 9 8 8 8 10 11 10 9 9 9 9 7 7 7 8 8 8 6 6 6 6 5 5 4 4 4 4 5 4 4 3 3 3 3 4 5
4 3 3 3 5 6 7 8 8 8 8 9 9 8 10 9 10 10 9 8 9 9 10 8 7 7 7 7 7 6 6 7 7 7 7 6 5 4 5 4 4 4 4 4 4 4 5 4 3 3 4 4 4 4
5 3 6 6 7 8 8 8 7 8 8 9 9 8 9 10 10 10 8 10 9 8 6 6 6 6 6 7 6 5 5 5 5 5 6 6 5 5 4 4 4 4 4 3 3 4 3 2 3 3 4 5 4 4
4 5 7 7 9 9 11 8 9 9 10 10 9 10 10 9 10 9 11 9 8 6 6 6 5 5 5 5 5 5 5 5 5 4 4 4 4 3 4 3 3 4 4 3 2 3 3 4 4 4 4 4 4 5
5 7 9 10 9 11 8 10 9 10 9 10 10 12 12 10 11 11 12 10 7 6 6 6 5 5 5 6 5 5 4 4 4 3 3 4 4 3 3 3 3 3 3 3 3 3 3 4 4 4 4 5 5 5
8 10 9 12 10 11 12 11 11 10 12 12 13 12 12 11 11 12 12 8 6 6 5 5 6 5 5 4 4 4 4 4 4 4 3 3 3 4 3 3 2 2 3 5 5 4 4 4 4 4 5 5 6 6
12 11 11 12 12 11 12 13 13 12 12 13 12 12 12 11 12 11 9 6 6 5 5 4 4 4 5 4 4 4 3 3 4 5 3 3 4 5 5 5 5 4 3 3 4 5 5 5 5 5 6 6 6 6
13 12 9 9 10 11 12 12 12 12 13 13 11 13 12 13 12 9 6 7 6 6 6 5 6 6 6 5 5 4 4 4 5 5 4 5 5 5 5 6 6 5 4 4 5 5 5 6 6 6 6 6 6 6
10 9 12 11 11 10 12 12 12 13 10 10 10 12 12 11 9 8 8 9 9 8 7 6 7 7 7 7 7 7 7 6 6 5 5 6 6 6 7 6 6 7 6 5 5 5 5 6 6 6 7 6 6 6
9 9 9 12 12 11 11 10 9 8 8 9 9 9 8 8 11 12 11 11 10 9 10 11 10 10 9 9 8 8 9 9 9 9 9 7 6 9 9 8 8 8 8 7 7 7 6 6 7 7 7 7 7 7
10 9 10 12 12 11 7 7 7 7 7 6 6 7 9 12 13 12 12 12 13 13 13 13 13 12 13 13 12 11 11 11 11 11 11 12 12 11 10 10 10 10 10 9 8 7 7 7 8 8 9 9 10 11
9 9 9 9 9 7 8 11 10 10 9 7 7 7 7 14 14 13 14 14 14 14 14 15 14 13 13 14 14 14 13 12 13 12 12 11 12 12 12 12 12 12 11 11 10 9 10 10 10 11 12 13 14 14
9 9 9 11 9 9 10 10 9 9 8 9 8 11 12 13 16 16 15 15 15 17 17 16 16 15 14 13 13 13 14 14 14 14 15 14 14 14 14 14 14 13 13 12 12 12 12 12 13 13 14 15 16 16
11 11 11 11 11 10 11 11 11 12 11 11 13 13 15 15 19 17 15 15 16 17 17 17 16 15 13 14 15 14 14 14 15 15 16 16 17 17 16 16 15 14 13 13 13 13 14 15 15 16 17 18 18 19